Weather History for Randolph AFB, TX

Change the Weather History Date:

Wednesday, October 16, 2013

  Actual Average Record
Temperature  
Mean Temperature 60 °F -  
Max Temperature 62 °F 77 °F 89 °F (1999)
Min Temperature 55 °F 58 °F 48 °F (1997)
Degree Days  
Heating Degree Days 6    
Growing Degree Days 10 (Base 50)    
Moisture  
Dew Point 55 °F    
Average Humidity 88    
Maximum Humidity 94    
Minimum Humidity 77    
Precipitation  
Precipitation 0.31 in - - ()
Sea Level Pressure  
Sea Level Pressure 30.02 in    
Wind  
Wind Speed 10 mph (North)    
Max Wind Speed 14 mph    
Max Gust Speed 20 mph    
Visibility 9 miles    
Events Rain    
Averages and records for this station are not official NWS values.
T = Trace of Precipitation, MM = Missing Value Source: NWS Daily Summary

Daily Weather History Graph

Daily Weather History Graph

Search for Another Location

Airport:

Trip Planner

Search our weather history database for the weather conditions in past years. The results will help you decide how hot, cold, wet, or windy it might be!

Date:

Astronomy

Oct. 16, 2013 Rise Set
Actual Time 7:35 AM CDT 7:01 PM CDT
Civil Twilight 7:11 AM CDT 7:25 PM CDT
Nautical Twilight 6:43 AM CDT 7:52 PM CDT
Astronomical Twilight 6:16 AM CDT 8:20 PM CDT
Moon 5:34 PM CDT (10/16) 5:14 AM CDT (10/16)
Length of Visible Light 12h 13m
Length of Day
11h 25m
Waxing Gibbous, 94% of the Moon is Illuminated
Oct 16
Waxing Gibbous
Oct 18
Full
Oct 26
Last Quarter
Nov 3
New
Nov 9
First Quarter

Hourly Weather History & Observations

Time (CDT) Temp. Dew Point Humidity Pressure Visibility Wind Dir Wind Speed Gust Speed Precip Events Conditions
12:03 AM 64.4 °F 57.2 °F 77% 30.00 in 10.0 mi North 8.1 mph - N/A   Mostly Cloudy
12:28 AM 64.4 °F 57.2 °F 77% 29.99 in 10.0 mi NNE 9.2 mph - N/A   Mostly Cloudy
12:38 AM 62.6 °F 57.2 °F 82% 29.98 in 10.0 mi NNE 11.5 mph - N/A   Mostly Cloudy
12:58 AM 63.0 °F 57.2 °F 81% 29.95 in 10.0 mi ENE 9.2 mph - N/A   Mostly Cloudy
1:03 AM 62.6 °F 57.2 °F 82% 29.94 in 10.0 mi ENE 10.4 mph - N/A   Scattered Clouds
1:23 AM 62.6 °F 57.2 °F 82% 29.95 in 10.0 mi NE 11.5 mph - N/A   Mostly Cloudy
1:58 AM 61.2 °F 55.9 °F 83% 29.96 in 10.0 mi NNE 8.1 mph - N/A   Overcast
2:28 AM 60.8 °F 55.4 °F 82% 29.99 in 10.0 mi North 9.2 mph - N/A   Overcast
2:58 AM 59.7 °F 54.9 °F 84% 29.96 in 10.0 mi North 11.5 mph 19.6 mph N/A   Mostly Cloudy
3:14 AM 59.0 °F 55.4 °F 88% 29.98 in 10.0 mi NNE 11.5 mph - N/A   Light Drizzle
3:34 AM 59.0 °F 55.4 °F 88% 29.98 in 10.0 mi NNE 8.1 mph - N/A Rain Light Rain
3:49 AM 59.0 °F 55.4 °F 88% 29.99 in 10.0 mi North 9.2 mph - N/A   Light Drizzle
3:58 AM 58.5 °F 55.6 °F 90% 29.96 in 10.0 mi NNE 10.4 mph - 0.00 in Rain Light Rain
4:03 AM 59.0 °F 55.4 °F 88% 29.97 in 10.0 mi NNE 12.7 mph 17.3 mph N/A Rain Light Rain
4:08 AM 59.0 °F 55.4 °F 88% 29.97 in 10.0 mi NNE 9.2 mph - N/A Rain Light Rain
4:18 AM 57.2 °F 55.4 °F 94% 29.96 in 10.0 mi NNE 12.7 mph 18.4 mph N/A Rain Light Rain
4:38 AM 57.2 °F 55.4 °F 94% 29.96 in 10.0 mi NNE 9.2 mph - N/A   Light Drizzle
4:46 AM 57.2 °F 55.4 °F 94% 29.97 in 10.0 mi NNE 10.4 mph - N/A   Mostly Cloudy
4:58 AM 57.7 °F 55.2 °F 91% 29.96 in 10.0 mi NNE 8.1 mph - 0.00 in   Overcast
5:03 AM 57.2 °F 55.4 °F 94% 29.97 in 10.0 mi NE 11.5 mph - N/A Rain Light Rain
5:23 AM 57.2 °F 53.6 °F 88% 29.97 in 10.0 mi NNE 9.2 mph - N/A   Drizzle
5:38 AM 57.2 °F 53.6 °F 88% 29.97 in 10.0 mi NNE 9.2 mph - N/A   Light Drizzle
5:43 AM 57.2 °F 53.6 °F 88% 29.97 in 10.0 mi NE 10.4 mph - N/A   Light Drizzle
5:48 AM 57.2 °F 53.6 °F 88% 29.98 in 10.0 mi NNE 8.1 mph - N/A   Light Drizzle
5:58 AM 57.0 °F 54.1 °F 90% 30.00 in 10.0 mi NNW 10.4 mph - 0.00 in Rain Light Rain
6:03 AM 57.2 °F 55.4 °F 94% 30.00 in 7.0 mi North 11.5 mph - N/A Rain Light Rain
6:08 AM 57.2 °F 55.4 °F 94% 30.00 in 6.0 mi NNW 10.4 mph - N/A Rain Light Rain
6:13 AM 57.2 °F 55.4 °F 94% 30.01 in 7.0 mi North 11.5 mph - N/A Rain Light Rain
6:18 AM 57.2 °F 55.4 °F 94% 30.01 in 10.0 mi North 12.7 mph - N/A Rain Light Rain
6:23 AM 57.2 °F 53.6 °F 88% 30.01 in 10.0 mi NNW 10.4 mph - N/A Rain Light Rain
6:28 AM 57.2 °F 53.6 °F 88% 30.00 in 10.0 mi North 8.1 mph - N/A   Light Drizzle
6:29 AM 57.2 °F 53.6 °F 88% 30.00 in 10.0 mi North 8.1 mph - N/A Rain Light Rain
6:34 AM 57.2 °F 53.6 °F 88% 30.00 in 9.0 mi North 8.1 mph - N/A Rain Light Rain
6:39 AM 57.2 °F 53.6 °F 88% 30.00 in 10.0 mi North 8.1 mph - N/A Rain Light Rain
6:45 AM 57.2 °F 53.6 °F 88% 29.99 in 10.0 mi NNE 8.1 mph - N/A Rain Light Rain
6:58 AM 57.0 °F 54.5 °F 91% 29.98 in 6.0 mi NE 5.8 mph - 0.03 in   Light Drizzle
7:40 AM 57.2 °F 55.4 °F 94% 30.01 in 4.0 mi North 10.4 mph - N/A Rain Light Rain
7:45 AM 57.2 °F 55.4 °F 94% 30.02 in 4.0 mi North 10.4 mph - N/A Rain Rain
7:55 AM 57.2 °F 55.4 °F 94% 30.02 in 10.0 mi North 8.1 mph - N/A Rain Light Rain
7:58 AM 57.0 °F 54.7 °F 92% 30.02 in 10.0 mi North 8.1 mph - 0.05 in Rain Light Rain
8:00 AM 57.2 °F 55.4 °F 94% 30.03 in 8.0 mi North 8.1 mph - N/A Rain Light Rain
8:06 AM 57.2 °F 55.4 °F 94% 30.03 in 2.0 mi North 8.1 mph - N/A Rain Heavy Rain
8:16 AM 57.2 °F 53.6 °F 88% 30.03 in 4.0 mi North 10.4 mph - N/A Rain Light Rain
8:21 AM 57.2 °F 53.6 °F 88% 30.03 in 9.0 mi North 9.2 mph - N/A Rain Light Rain
8:31 AM 55.4 °F 53.6 °F 94% 30.04 in 2.0 mi North 12.7 mph - N/A Rain Heavy Rain
8:40 AM 55.4 °F 53.6 °F 94% 30.04 in 2.5 mi North 10.4 mph - N/A Rain Heavy Rain
8:50 AM 55.4 °F 53.6 °F 94% 30.04 in 1.8 mi NNE 9.2 mph - N/A Rain Rain
8:55 AM 55.4 °F 53.6 °F 94% 30.04 in 1.8 mi North 10.4 mph - N/A Rain Heavy Rain
8:58 AM 55.4 °F 53.6 °F 94% 30.03 in 1.8 mi North 10.4 mph - 0.15 in Rain Heavy Rain
9:03 AM 55.4 °F 53.6 °F 94% 30.05 in 3.0 mi North 8.1 mph - N/A Rain Light Rain
9:28 AM 55.4 °F 53.6 °F 94% 30.04 in 5.0 mi North 10.4 mph - N/A Rain Light Rain
9:41 AM 55.4 °F 53.6 °F 94% 30.04 in 5.0 mi North 12.7 mph - N/A Rain Light Rain
9:51 AM 55.4 °F 53.6 °F 94% 30.05 in 6.0 mi North 9.2 mph 18.4 mph N/A Rain Light Rain
9:58 AM 56.1 °F 53.6 °F 91% 30.04 in 6.0 mi North 10.4 mph - 0.04 in Rain Light Rain
10:20 AM 57.2 °F 53.6 °F 88% 30.06 in 4.0 mi North 10.4 mph - N/A Rain Rain
10:41 AM 55.4 °F 53.6 °F 94% 30.06 in 10.0 mi North 11.5 mph 18.4 mph N/A Rain Light Rain
10:57 AM 57.2 °F 53.6 °F 88% 30.06 in 7.0 mi NNE 11.5 mph - N/A Rain Light Rain
11:54 AM 57.2 °F 55.4 °F 94% 30.08 in 8.0 mi North 11.5 mph - N/A Rain Light Rain
11:58 AM 57.6 °F 54.7 °F 90% 30.07 in 5.0 mi North 10.4 mph - 0.01 in Rain Light Rain
12:03 PM 57.2 °F 55.4 °F 94% 30.07 in 3.0 mi North 12.7 mph 17.3 mph N/A Rain Heavy Rain
12:08 PM 57.2 °F 55.4 °F 94% 30.07 in 5.0 mi North 12.7 mph 17.3 mph N/A Rain Light Rain
12:13 PM 57.2 °F 55.4 °F 94% 30.07 in 10.0 mi North 10.4 mph - N/A Rain Light Rain
12:38 PM 59.0 °F 55.4 °F 88% 30.05 in 10.0 mi NNE 9.2 mph - N/A   Light Drizzle
12:40 PM 59.0 °F 55.4 °F 88% 30.05 in 10.0 mi North 12.7 mph - N/A   Mostly Cloudy
12:42 PM 59.0 °F 55.4 °F 88% 30.05 in 10.0 mi North 10.4 mph 17.3 mph N/A   Light Drizzle
12:47 PM 59.0 °F 55.4 °F 88% 30.04 in 10.0 mi NNE 9.2 mph - N/A   Light Drizzle
12:58 PM 58.5 °F 55.4 °F 90% 30.04 in 10.0 mi NNE 10.4 mph - 0.03 in Rain Light Rain
1:13 PM 59.0 °F 55.4 °F 88% 30.04 in 10.0 mi NNE 11.5 mph - N/A   Mostly Cloudy
1:28 PM 59.0 °F 55.4 °F 88% 30.03 in 10.0 mi North 10.4 mph - N/A   Mostly Cloudy
1:33 PM 59.0 °F 55.4 °F 88% 30.03 in 10.0 mi North 11.5 mph - N/A   Overcast
1:58 PM 59.0 °F 55.6 °F 88% 30.01 in 10.0 mi North 11.5 mph - 0.00 in   Light Drizzle
2:26 PM 59.0 °F 55.4 °F 88% 30.02 in 10.0 mi North 10.4 mph - N/A   Light Drizzle
2:58 PM 59.9 °F 56.7 °F 89% 30.01 in 10.0 mi North 11.5 mph - 0.00 in   Light Drizzle
3:58 PM 59.9 °F 56.3 °F 88% 30.01 in 10.0 mi North 13.8 mph - 0.00 in   Light Drizzle
4:08 PM 60.8 °F 57.2 °F 88% 30.01 in 10.0 mi North 13.8 mph - N/A   Overcast
4:33 PM 60.8 °F 55.4 °F 82% 30.01 in 10.0 mi North 13.8 mph - N/A   Overcast
4:58 PM 60.1 °F 55.9 °F 86% 30.01 in 10.0 mi North 10.4 mph - 0.00 in   Overcast
5:38 PM 60.8 °F 55.4 °F 82% 30.00 in 10.0 mi North 9.2 mph - N/A   Overcast
5:48 PM 59.0 °F 55.4 °F 88% 30.01 in 10.0 mi North 10.4 mph - N/A   Overcast
5:58 PM 59.9 °F 55.4 °F 85% 30.01 in 10.0 mi North 9.2 mph - N/A   Overcast
6:08 PM 60.8 °F 55.4 °F 82% 30.01 in 10.0 mi North 10.4 mph - N/A   Overcast
6:43 PM 60.8 °F 55.4 °F 82% 30.01 in 10.0 mi North 8.1 mph - N/A   Overcast
6:58 PM 60.1 °F 55.2 °F 84% 30.01 in 10.0 mi North 10.4 mph - N/A   Overcast
7:28 PM 60.8 °F 55.4 °F 82% 30.03 in 10.0 mi North 10.4 mph - N/A   Overcast
7:58 PM 60.1 °F 55.2 °F 84% 30.04 in 10.0 mi North 9.2 mph - N/A   Overcast
8:28 PM 60.8 °F 55.4 °F 82% 30.05 in 10.0 mi North 5.8 mph - N/A   Overcast
8:53 PM 60.8 °F 55.4 °F 82% 30.06 in 10.0 mi North 5.8 mph - N/A   Overcast
8:58 PM 60.4 °F 55.6 °F 84% 30.06 in 10.0 mi North 5.8 mph - N/A   Overcast
9:58 PM 60.6 °F 55.8 °F 84% 30.08 in 10.0 mi North 4.6 mph - N/A   Overcast
10:08 PM 60.8 °F 55.4 °F 82% 30.08 in 10.0 mi North 5.8 mph - N/A   Overcast
10:33 PM 60.8 °F 55.4 °F 82% 30.08 in 10.0 mi North 4.6 mph - N/A   Overcast
10:58 PM 60.8 °F 56.3 °F 85% 30.08 in 10.0 mi North 4.6 mph - N/A   Overcast
11:33 PM 60.8 °F 57.2 °F 88% 30.08 in 10.0 mi NNE 2.3 mph - N/A   Overcast
11:48 PM 60.8 °F 57.2 °F 88% 30.08 in 10.0 mi NNE 2.3 mph - N/A   Mostly Cloudy
11:53 PM 60.8 °F 57.2 °F 88% 30.08 in 10.0 mi NNE 3.5 mph - N/A   Mostly Cloudy
11:58 PM 61.2 °F 56.8 °F 86% 30.08 in 10.0 mi NNE 2.3 mph - N/A   Mostly Cloudy